SL-16 DEB, 39865

Orbit data source: Space-Track

SL-16 DEB, 39865 is space debris in LEO originally from a launch on Fri, 25 Dec 1992 UTC launched from the Tyuratam Missile And Space Complex (TTMTR). Debris objects in space refer to the collection of defunct objects orbiting the Earth. Examples of debris include non-operational satellites, rocket bodies, and fragments generated from explosions, collisions, or faulty payload assembly.

Loading next visibility...
Identifier
39865, 1992-093LT
Orbit
LEO
Country
Flag of CISCIS
Related business
Manufacturer
Unknown
Mission
Spacecraft
Bus & Motor
Unknown
Mass
Unknown
Launch date (UTC)
1992-12-25 (33 years ago)
Launch vehicle
Unknown
Launch site
Tyuratam Missile And Space Complex (TTMTR)
Object type
Payload
Rocket body
Debris
Shape & HBR
Unknown shape, 0.1 m
Radar Cross Section
Small (<0.1 m²)

Expand to show TLE details & history
Last TLE update: 6 days ago

TLE from 6 days ago
0 SL-16 DEB
1 39865U 92093LT  25347.59680575  .00003379  00000-0  11228-2 0  9998
2 39865  71.0138 103.1864 0007704 266.2849  93.7406 14.38410876602538
Epoch: 2025-12-13T14:19Z
TLE epoch observation values (Epoch: 2025-12-13T14:19:24.016Z)
Latitude
0.00004°
Longitude
165.81455°
Altitude
766.545 km
Speed
7.471 km/s
True Right ascension
06h 52m 44s
True Declination
0° 00' 00"
Sunlit
Object was in full shadow at epoch
Visualization orbit readout
Latitude
Unknown
Longitude
Unknown
Altitude
Unknown
Speed
Unknown
Apparent Right ascension
Unknown
Apparent Declination
Unknown
Sunlit
N/A
Visualization observer readout
Local Sidereal Time
11:29:11
Azimuth
Unknown
Elevation
Unknown
Doppler factor
Unknown
Orbital elements
Apogee altitude
767.155 km
Perigee altitude
756.154 km
Semi-major axis
7,139.791 km
Eccentricity
0.00077
Inclination
71.0138°
RAAN
103.1864°
Arg. of periapsis
266.2849°
True anomaly
93.82869°
Mean anomaly
93.7406°
Eccentric anomaly
93.78464°
Mean motion
3.59762 °/min
Orbital period
100.07 mins
BSTAR
0.0011228
Loading maneuver chart data...
Computing Atmospheric mass density...
Loading historical data...
Loading historical data...
Loading historical data...
Loading historical data...
Loading historical data...
Loading historical data...
Loading historical data...

Documentation

Showing up to 5 results
|